Location: Oroua River
(40.4333°S, 175.4333°E)
Time: 14:07:48
(UTC+00:00)

PSLV R/B - Pass Details

Date: 03 February 2023
Orbit: 587 x 621 km, 98.0° (Epoch: 31 March)

Event Time Altitude Azimuth Distance (km) Brightness Sun altitude
Rises 16:01:14 0° 27° (NNE) 2,814 6.8 -15.2°
Reaches altitude 10° 16:03:26 10° 32° (NNE) 1,922 6.0 -14.9°
Maximum altitude 16:07:27 49° 107° (ESE) 773 4.5 -14.3°
Drops below altitude 10° 16:11:33 10° 182° (S) 1,956 6.6 -13.7°
Sets 16:13:47 0° 187° (S) 2,871 7.4 -13.3°
